DW1345 Weather Reports


Display with metric or nautical units.
time (UTC)temp
F
wind
direction
speed
MPH
gust
MPH
rain 1hr
in
rain 24hr
in
rain mn
in
humidity
%
barometer
mb
20260831134524 61 234 2.0 0.0 0.00 0.00 0.06 78 1003.7
20260831133024 63 194 2.0 0.0 0.00 0.00 0.06 77 1003.7
20260831131525 62 190 2.0 0.0 0.00 0.00 0.06 81 1003.9
20260831130019 62 190 2.0 0.0 0.00 0.00 0.06 78 1003.7
20260831124534 62 186 1.0 0.0 0.00 0.00 0.06 80 1003.7
20260831123017 61 212 1.0 0.0 0.00 0.00 0.06 79 1003.7
20260831121515 61 205 2.0 0.0 0.00 0.00 0.06 80 1003.7
20260831120017 61 211 1.0 0.0 0.00 0.00 0.06 82 1003.6
20260831114512 61 219 1.0 0.0 0.00 0.00 0.06 82 1003.7
20260831113011 60 244 2.0 0.0 0.00 0.00 0.06 82 1003.8
20260831111510 62 233 2.0 0.0 0.00 0.00 0.06 81 1003.5
20260831110018 62 190 3.0 0.0 0.00 0.00 0.06 81 1003.5
20260831104501 60 178 1.0 0.0 0.00 0.00 0.06 87 1003.5
20260831103102 58 271 0.0 0.0 0.00 0.00 0.06 88 1003.7
20260831101602 58 289 1.0 0.0 0.00 0.00 0.06 90 1003.6
20260831100106 58 190 1.0 0.0 0.00 0.00 0.06 92 1003.6
20260831094610 58 233 1.0 0.0 0.00 0.00 0.06 91 1003.5
20260831093054 58 184 3.0 0.0 0.00 0.00 0.06 92 1003.4
20260831091557 58 231 1.0 0.0 0.00 0.00 0.06 95 1003.4
20260831090048 56 221 1.0 0.0 0.00 0.00 0.06 95 1003.5
20260831084548 56 236 3.0 0.0 0.00 0.00 0.06 95 1003.4
20260831083044 56 219 2.0 0.0 0.00 0.00 0.06 95 1003.3
20260831081540 56 190 0.0 0.0 0.00 0.00 0.06 96 1003.3
20260831080040 55 215 0.0 0.0 0.00 0.00 0.06 96 1003.2
20260831074537 55 217 1.0 0.0 0.00 0.00 0.06 96 1003.2
20260831073035 54 219 2.0 0.0 0.00 0.00 0.06 96 1003.2
20260831071549 55 214 1.0 0.0 0.00 0.00 0.06 96 1003.1
20260831070035 55 198 1.0 0.0 0.00 0.00 0.06 96 1003.2
20260831064534 54 182 2.0 0.0 0.00 0.00 0.06 96 1003.0
20260831063037 55 204 1.0 0.0 0.00 0.00 0.06 97 1003.2
20260831061532 55 184 0.0 0.0 0.00 0.00 0.06 97 1003.0
20260831060030 54 184 0.0 0.0 0.00 0.00 0.06 97 1003.0
20260831054529 54 185 1.0 0.0 0.00 0.00 0.06 96 1003.1
20260831053044 54 185 0.0 0.0 0.00 0.00 0.06 96 1002.8
20260831051532 54 190 1.0 0.0 0.00 0.00 0.06 96 1002.8
20260831050026 54 197 0.0 0.0 0.00 0.00 0.06 97 1002.7
20260831044526 54 198 0.0 0.0 0.00 0.00 0.06 97 1002.6
20260831043024 54 198 0.0 0.0 0.00 0.00 0.06 97 1002.6
20260831041523 54 211 0.0 0.0 0.00 0.00 0.06 96 1002.5
20260831040023 54 225 0.0 0.0 0.00 0.00 0.06 96 1002.4
20260831034522 54 229 0.0 0.0 0.00 0.00 0.06 97 1002.5
20260831033031 54 240 0.0 0.0 0.00 0.00 0.06 96 1002.2
20260831031521 54 254 0.0 0.0 0.00 0.00 0.06 96 1002.2
20260831030019 54 261 1.0 0.0 0.00 0.00 0.06 97 1002.1
20260831024520 54 218 0.0 0.0 0.00 0.00 0.06 96 1002.1
20260831023030 54 232 0.0 0.0 0.00 0.00 0.04 96 1002.0
20260831021531 54 192 0.0 0.0 0.00 0.00 0.02 96 1001.8
20260831020025 54 191 0.0 0.0 0.00 0.00 0.02 96 1001.8
20260831014515 54 191 0.0 0.0 0.00 0.00 0.02 96 1001.7
20260831013014 54 191 0.0 0.0 0.00 0.00 0.02 96 1001.7
20260831011516 54 191 0.0 0.0 0.00 0.00 0.02 96 1001.7
20260831010013 54 191 0.0 0.0 0.00 0.00 0.02 96 1001.7
20260831004511 54 191 0.0 0.0 0.00 0.00 0.02 96 1001.8
20260831003010 54 191 0.0 0.0 0.00 0.00 0.02 96 1001.7
20260831001513 54 191 0.0 0.0 0.00 0.00 0.02 96 1001.6
20260831000009 54 192 0.0 0.0 0.00 0.00 0.02 96 1001.6
20260830234508 54 197 0.0 0.0 0.00 0.00 0.02 96 1001.6
20260830233007 54 201 0.0 0.0 0.00 0.00 0.02 96 1001.6
20260830231515 54 209 0.0 0.0 0.00 0.00 0.02 96 1001.3
20260830230006 54 214 1.0 0.0 0.00 0.00 0.01 96 1001.4
20260830224503 54 236 3.0 0.0 0.00 0.00 0.01 96 1001.3
20260830223100 54 231 2.0 0.0 0.00 0.00 0.01 96 1001.1
20260830221601 54 240 1.0 0.0 0.00 0.00 0.00 95 1001.0
20260830220107 54 228 1.0 0.0 0.00 0.00 0.00 95 1001.1
20260830214555 54 201 1.0 0.0 0.00 0.00 0.17 95 1000.8
20260830213103 54 232 1.0 0.0 0.00 0.00 0.17 95 1000.7
20260830211558 54 217 0.0 0.0 0.00 0.00 0.17 95 1000.7
20260830210058 54 223 0.0 0.0 0.00 0.00 0.17 95 1000.7
20260830204556 54 239 2.0 0.0 0.00 0.00 0.17 94 1000.7
20260830203054 55 246 2.0 0.0 0.00 0.00 0.15 94 1000.6
20260830201548 55 223 1.0 0.0 0.00 0.00 0.14 94 1000.6
20260830200046 55 273 2.0 0.0 0.00 0.00 0.13 94 1000.5
20260830194545 55 267 2.0 0.0 0.00 0.00 0.12 93 1000.4
20260830193044 56 265 2.0 0.0 0.00 0.00 0.12 93 1000.3
20260830191543 56 240 1.0 0.0 0.00 0.00 0.12 92 1000.2
20260830190043 56 231 0.0 0.0 0.00 0.00 0.12 92 1000.0
20260830184542 56 234 1.0 0.0 0.00 0.00 0.12 91 999.9
20260830183046 56 203 1.0 0.0 0.00 0.00 0.12 91 999.9
20260830181540 57 242 0.0 0.0 0.00 0.00 0.12 91 999.8
20260830180039 57 292 1.0 0.0 0.00 0.00 0.12 91 999.6
20260830174541 57 294 0.0 0.0 0.00 0.00 0.12 91 999.6
20260830173036 57 294 0.0 0.0 0.00 0.00 0.12 91 999.6
20260830171536 57 294 0.0 0.0 0.00 0.00 0.12 91 999.5
20260830170034 57 308 0.0 0.0 0.00 0.00 0.12 91 999.5
20260830164539 57 309 1.0 0.0 0.00 0.00 0.12 90 999.3
20260830163032 57 309 2.0 0.0 0.00 0.00 0.12 90 999.3
20260830161546 57 299 1.0 0.0 0.00 0.00 0.12 90 999.2
20260830160033 58 311 0.0 0.0 0.00 0.00 0.12 90 999.1
20260830154536 57 311 2.0 0.0 0.00 0.00 0.12 91 999.1
20260830153044 57 15 1.0 0.0 0.00 0.00 0.12 91 999.1
20260830151529 56 360 1.0 0.0 0.00 0.00 0.12 92 999.0
20260830150029 56 320 0.0 0.0 0.00 0.00 0.12 91 998.9
20260830144528 56 319 1.0 0.0 0.00 0.00 0.12 91 998.9
20260830143031 56 319 0.0 0.0 0.00 0.00 0.12 90 998.9
20260830141527 56 306 1.0 0.0 0.00 0.00 0.12 90 998.9
20260830140025 56 309 0.0 0.0 0.00 0.00 0.12 90 998.8